STARLINK-35950, 66622

Orbit data source: Space-Track

STARLINK-35950, 66622 is a payload satellite owned by SpaceX/Seattle (US) in LEO that was launched on Sun, 23 Nov 2025 UTC via an FALCON 9 launch vehicle from the Air Force Western Test Range (AFWTR). Payload-class satellites include a variety of spacecraft equipped with specific instruments for various scientific and technological missions. These include communications satellites like Starlink; space stations such as the ISS; scientific satellites like the Hubble; Earth observation satellites from companies like Planet Labs, Umbra, and HawkEye 360; GPS; miniature CubeSats for education and research; and military/defense satellites.

Loading next visibility...
Identifier
66622, 2025-271F
Orbit
LEO
Country
Flag of USUS
Related business
Manufacturer
SpaceX/Seattle
Mission
Operational Commercial Communications
Bus & Motor
STARLINK V2MO, Unknown motor
Mass
575 kg wet, ~530 kg dry
Launch date (UTC)
2025-11-23 (10 months ago)
Launch vehicle
FALCON 9
Launch site
Air Force Western Test Range (AFWTR)
Object type
Payload
Rocket body
Debris
Shape & HBR
Box + 1 Pan, 17.7 m
Radar Cross Section
41.120 m², Large (>1 m²)

Expand to show TLE details & history
Last TLE update: 2 days ago

TLE from 2 days ago
0 STARLINK-35950
1 66622U 25271F   26264.40400953  .00004993  00000-0  15873-3 0  9996
2 66622  53.1602 309.2912 0001144  82.1255 277.9878 15.34415456 47557
Epoch: 2026-09-21T09:41Z
TLE epoch observation values (Epoch: 2026-09-21T09:41:46.423Z)
Latitude
0.00003°
Longitude
163.56347°
Altitude
463.45 km
Speed
7.636 km/s
True Right ascension
20h 37m 09s
True Declination
0° 00' 00"
Sunlit
Object was in full shadow at epoch
Visualization orbit readout
Latitude
Unknown
Longitude
Unknown
Altitude
Unknown
Speed
Unknown
Apparent Right ascension
Unknown
Apparent Declination
Unknown
Sunlit
N/A
Visualization observer readout
Local Sidereal Time
17:12:35
Azimuth
Unknown
Elevation
Unknown
Doppler factor
Unknown
Orbital elements
Apogee altitude
463.697 km
Perigee altitude
462.132 km
Semi-major axis
6,841.051 km
Eccentricity
0.00011
Inclination
53.1602°
RAAN
309.2912°
Arg. of periapsis
82.1255°
True anomaly
277.97482°
Mean anomaly
277.9878°
Eccentric anomaly
277.98131°
Mean motion
3.83583 °/min
Orbital period
93.85 mins
BSTAR
0.00015873
Loading maneuver chart data...
Computing Atmospheric mass density...
Loading historical data...
Loading historical data...
Loading historical data...
Loading historical data...
Loading historical data...
Loading historical data...
Loading historical data...

Documentation

Showing up to 5 results
|